M I D A S
Marine Information and Data Acquisition System
Tripno 1176 of the Zeeleeuw from 2006-12-01 08:00:00 to 2006-12-01 17:00:00
Back to CruiseResearch ActivitiesStationsMapUnderway DataData graphs

EquipmentUnitsComment
TimeDGPSUTC
LatitudeDGPSDM.mWGS84
LongitudeDGPSDM.mWGS84
TemperatureSBE03/SBE38deg celciusITS90
ConductivitySBE21S/mITS90
SalinitySBE21 Practical Salinity Units
ChlorophylAChelsea fluorimeterg/lCalibrated in Aceton
Missing or incorrect values are displayed as -999
Sea surface data collected by the RV Zeeleeuw from 2006-12-01 08:00:00 to 2006-12-01 17:00:00
Time Latitude Longitude Temperature Conductivity Salinity ChlorophylA
2006-12-01 09:29:22 51°21.889 2°58.369 -999 3.80984 32.494315 -2.871232
2006-12-01 09:29:27 51°21.891 2°58.366 -999 3.80984 32.493505 -2.871232
2006-12-01 09:29:32 51°21.894 2°58.363 -999 3.80984 32.493505 -2.871232
2006-12-01 09:29:37 51°21.896 2°58.36 -999 3.809943 32.493679 -2.871232
2006-12-01 09:29:42 51°21.897 2°58.356 -999 3.810151 32.494026 -2.871232
2006-12-01 09:29:47 51°21.899 2°58.352 -999 3.810254 32.493389 -2.871232
2006-12-01 09:29:52 51°21.9 2°58.348 -999 3.810565 32.495531 -2.871232
2006-12-01 09:29:56 51°21.9 2°58.345 -999 3.810565 32.496342 -2.871232
2006-12-01 09:30:02 51°21.9 2°58.34 -999 3.810565 32.496342 -2.871232
2006-12-01 09:30:07 51°21.899 2°58.336 -999 3.810772 32.499121 -2.871232
2006-12-01 09:30:12 51°21.898 2°58.332 -999 3.810772 32.499121 -2.871232
2006-12-01 09:30:16 51°21.897 2°58.328 -999 3.810876 32.499294 -2.871232
2006-12-01 09:30:22 51°21.895 2°58.322 -999 3.811083 32.500452 -2.871232
2006-12-01 09:30:27 51°21.893 2°58.317 -999 3.811083 32.500452 -2.871232
2006-12-01 09:30:32 51°21.891 2°58.312 -999 3.811083 32.500452 -2.871232
2006-12-01 09:30:35 51°21.89 2°58.309 -999 3.811187 32.500625 -2.871232
2006-12-01 09:30:35 51°21.89 2°58.309 -999 3.811601 32.50213 -2.871232
2006-12-01 13:22:12 51°13.597 2°56.094 -999 0.008489 0.05393 -2.871232
2006-12-01 13:22:12 51°13.597 2°56.094 -999 0.008489 0.05393 -2.871232